Location: Sungai Anya
(2.6167°N, 114.0500°E)
Time: 18:52:18
(UTC+00:00)

Cosmos 494 Rocket - Pass Details

Date: 19 October 2021
Orbit: 743 x 770 km, 74.1° (Epoch: 08 December)

Event Time Altitude Azimuth Distance (km) Brightness Sun altitude
Rises 10:58:06 0° 352° (N) 3,188 7.2 -12.6°
Reaches altitude 10° 11:00:29 10° 355° (N) 2,262 6.4 -13.2°
Maximum altitude 11:05:34 67° 78° (ENE) 806 3.9 -14.4°
Drops below altitude 10° 11:10:38 10° 160° (SSE) 2,256 6.3 -15.7°
Sets 11:13:00 0° 163° (SSE) 3,179 7.1 -16.3°
